El Poble-sec, Spain

12:11 AM CEST on October 20, 2018 (GMT +0200)
El Prat | | Change Station

Elev 20 ft 41.28 °N, 2.07 °E | Updated 11 minutes ago

Rain
Rain
64 °F
Feels Like 64 °F
N
6
Wind Variable Wind from West

Today
High -- | Low -- °F
--% Chance of Precip.
Yesterday
High -- | Low -- °F
Precip. -- in
Pressure 30.06 in
Visibility 4.3 miles
Clouds Few 2000 ft
Few 3000 ft
Scattered Clouds 5000 ft
Dew Point 63 °F
Humidity 94%
Rainfall 0.00 in
Snow Depth Not available.
8:08 AM 7:03 PM
Waxing Gibbous, 78% visible
METAR LEBL 192200Z 27005KT 7000 -TSRA FEW020 FEW030CB SCT050 18/17 Q1018 TEMPO 4000 SCT025CB
Pressure 30.06 in
Visibility 4.3 miles
Clouds Few 2000 ft
Few 3000 ft
Scattered Clouds 5000 ft
Dew Point 63 °F
Humidity 94%
Rainfall 0.00 in
Snow Depth Not available.
8:08 AM 7:03 PM
Waxing Gibbous, 78% visible
METAR LEBL 192200Z 27005KT 7000 -TSRA FEW020 FEW030CB SCT050 18/17 Q1018 TEMPO 4000 SCT025CB

Get Severe Weather Alerts

Thanks for signing up!

Be on the lookout for a verification email in your inbox.

You'll start receiving the daily forecast at 6 AM.

×

10-Day Weather Forecast

×

Almanac

Astronomy

Oct. 20, 2018 Rise Set
Actual Time
Civil Twilight
Nautical Twilight
Astronomical Twilight
Moon
Length of Visible Light
Length of Day
Tomorrow will be .
, % of the Moon is Illuminated

Today's Extremes

Country Highs Country Lows

Community

WunderPhotos

Category 6

Welcome to Category 6. This is the collective home for Weather Underground's featured writeups by Dr. Jeff Masters (right), Bob Henson (left), Chris Burt, and other regular contributors.

Nearby

Air Quality

  Air Quality AQ Index Pollutant
Not available.

Snow Depth

Station Depth Elevation

Earthquake Activity

City Distance Mag. Time & Date
Minimum magnitude displayed is 2.5.

Coastal Water Temperatures

Place Temperature

Stations

Nearby Weather Stations

Station Location Temp. Windchill Dew Point Humidity Wind Precip. Elev Updated Type